TimeMDT,TemperatureF,Dew PointF,Humidity,Sea Level PressureIn,VisibilityMPH,Wind Direction,Wind SpeedMPH,Gust SpeedMPH,PrecipitationIn,Events,Conditions,WindDirDegrees,DateUTC
12:53 AM,35.1,30.0,82,30.09,10.0,Calm,Calm,-,N/A,,Mostly Cloudy,0,2013-03-29 06:53:00
1:53 AM,32.0,28.0,85,30.11,10.0,SE,5.8,-,N/A,,Overcast,140,2013-03-29 07:53:00
2:53 AM,32.0,28.9,88,30.10,10.0,Calm,Calm,-,N/A,,Scattered Clouds,0,2013-03-29 08:53:00
3:53 AM,30.9,28.0,89,30.09,10.0,Calm,Calm,-,N/A,,Partly Cloudy,0,2013-03-29 09:53:00
4:53 AM,30.0,28.0,92,30.10,10.0,Calm,Calm,-,N/A,,Mostly Cloudy,0,2013-03-29 10:53:00
5:53 AM,30.0,28.0,92,30.10,10.0,Calm,Calm,-,N/A,,Mostly Cloudy,0,2013-03-29 11:53:00
6:53 AM,30.0,28.0,92,30.12,10.0,SE,3.5,-,N/A,,Scattered Clouds,130,2013-03-29 12:53:00
7:53 AM,30.9,28.0,89,30.14,10.0,Calm,Calm,-,N/A,,Overcast,0,2013-03-29 13:53:00
8:53 AM,33.1,28.9,85,30.15,10.0,Calm,Calm,-,N/A,,Overcast,0,2013-03-29 14:53:00
9:53 AM,35.1,30.9,85,30.17,10.0,Calm,Calm,-,N/A,,Overcast,0,2013-03-29 15:53:00
10:53 AM,37.0,32.0,82,30.17,10.0,Calm,Calm,-,0.00,Rain,Light Rain,0,2013-03-29 16:53:00
11:53 AM,39.9,33.1,77,30.17,9.0,NE,4.6,-,0.00,Rain,Light Rain,50,2013-03-29 17:53:00
12:29 PM,37.4,33.8,87,30.17,5.0,NNE,4.6,-,0.03,Rain,Light Rain,20,2013-03-29 18:29:00
12:50 PM,39.2,35.6,87,30.16,10.0,East,3.5,-,0.03,,Overcast,90,2013-03-29 18:50:00
12:53 PM,41.0,34.0,76,30.19,10.0,East,3.5,-,0.03,,Overcast,100,2013-03-29 18:53:00
1:53 PM,43.0,36.0,76,30.17,10.0,SSE,4.6,-,N/A,,Overcast,160,2013-03-29 19:53:00
2:53 PM,46.0,33.1,61,30.16,10.0,NW,9.2,-,0.00,Rain,Light Rain,320,2013-03-29 20:53:00
3:53 PM,48.0,32.0,54,30.14,10.0,WNW,9.2,18.4,0.00,,Overcast,300,2013-03-29 21:53:00
4:53 PM,46.9,32.0,56,30.16,10.0,NNW,9.2,-,N/A,,Overcast,340,2013-03-29 22:53:00
5:53 PM,44.1,32.0,63,30.19,10.0,NW,5.8,-,N/A,,Overcast,320,2013-03-29 23:53:00
6:53 PM,45.0,30.9,58,30.18,10.0,NW,6.9,-,N/A,,Overcast,310,2013-03-30 00:53:00
7:53 PM,43.0,30.0,60,30.18,10.0,WNW,3.5,-,N/A,,Overcast,290,2013-03-30 01:53:00
8:53 PM,42.1,30.9,65,30.18,10.0,Calm,Calm,-,N/A,,Overcast,0,2013-03-30 02:53:00
9:53 PM,39.9,32.0,73,30.21,10.0,Calm,Calm,-,N/A,,Overcast,0,2013-03-30 03:53:00
10:53 PM,39.9,32.0,73,30.22,10.0,NNW,5.8,-,0.00,,Overcast,340,2013-03-30 04:53:00
11:53 PM,37.0,32.0,82,30.22,10.0,WSW,3.5,-,N/A,,Overcast,240,2013-03-30 05:53:00